2017-008BV

Last updated on Wed Mar 01 2017 00:15:03 GMT+0000 (Coordinated Universal Time)

1 42015U 17008BV 17059.74469656 .00002125 00000-0 95038-4 0 9996 2 42015 97.5087 121.3656 0005473 231.1807 128.8905 15.22412304 1856
UTC large
Height (km)
Speed (km/s)
/
Latitude / Longitude
Inclination (degrees)
Orbital Period (minutes)
Azimuth
Elevation
Range (km)
Doppler Factor

Next 0 passes for location: London (51.5072 / 0.1276)

Sorry there are no passes over London.